Regional Weather Roundup
Issued by NWS

Home | Current Version | Previous Version | Graphics & Text | Print | Product List | Glossary On
Versions: 1 2 3 4 5 6 7 8 9 10 11 12 13 14 15 16 17 18 19 20 21 22 23 24 25 26 27 28 29 30 31 32 33 34 35 36 37 38 39 40 41 42 43 44 45 46 47 48 49 50
000
ASUS45 KPSR 040700
RWRAZ

ARIZONA HOURLY REGIONAL WEATHER ROUNDUP
NATIONAL WEATHER SERVICE PHOENIX AZ
1200 AM MST SAT JUL 04 2015

NOTE: FAIR INDICATES FEW OR NO CLOUDS BELOW 12,000 FEET WITH NO
SIGNIFICANT WEATHER AND/OR OBSTRUCTIONS TO VISIBILITY.

AZZ001>003-036-040800-
NORTHWEST ARIZONA

CITY           SKY/WX    TMP DP  RH WIND       PRES   REMARKS
KINGMAN        MOCLDY    84  47  27 CALM      29.95S
$$

AZZ004>008-015-016-018-040800-
NORTH CENTRAL ARIZONA

CITY           SKY/WX    TMP DP  RH WIND       PRES   REMARKS
GRAND CANYON   CLOUDY    63  56  78 CALM      30.23F
WILLIAMS       CLOUDY    61  55  82 SE13      30.30F
PRESCOTT       CLOUDY    69  59  70 N3        30.12F
FLAGSTAFF      NOT AVBL
PAYSON         MOCLDY    72  55  56 N13G18    30.10F
PAGE           CLOUDY    84  51  31 SW12G20   29.99R
$$

AZZ009>014-017-040800-
NORTHEAST ARIZONA

CITY           SKY/WX    TMP DP  RH WIND       PRES   REMARKS
WINSLOW        NOT AVBL
SAINT JOHNS    CLOUDY    67  60  78 CALM      30.15R
WINDOW ROCK    LGT RAIN  63  55  75 E3        30.22F
SHOW LOW       CLOUDY    59  55  88 CALM      30.22S
$$

AZZ023-040800-
GREATER PHOENIX AREA

CITY           SKY/WX    TMP DP  RH WIND       PRES   REMARKS
PHOENIX        MOCLDY    89  65  44 NW6       29.76S
LUKE AFB       MOCLDY    90  61  37 N14       29.77S
DEER VALLEY    MOCLDY    84  67  56 NW7       29.79F
SCOTTSDALE     MOCLDY    86  66  51 W7        29.80S
MESA-GATEWAY   PTCLDY    90  63  40 N8        29.80F
$$

AZZ027-028-040800-
SOUTHWEST MARICOPA COUNTY AND PINAL COUNTY

CITY           SKY/WX    TMP DP  RH WIND       PRES   REMARKS
CASA GRANDE    MOCLDY    88  61  40 CALM      29.78F
GILA BEND      CLOUDY    96  56  26 NE9       29.74R
$$

AZZ503-504-507>509-040800-
SOUTHEAST ARIZONA

CITY           SKY/WX    TMP DP  RH WIND       PRES   REMARKS
TUCSON         PTCLDY    88  52  29 W10       29.88S
DAVIS-MONTHAN  MOCLDY    87  53  30 W5        29.87S
NOGALES        PTCLDY    77  57  50 S6        29.98S
SIERRA VISTA   PTCLDY    78  54  43 N2        30.06S
SAFFORD        MOCLDY    81  67  62 NE3       29.91R
$$

AZZ020-021-025-026-031-040800-
SOUTHWEST ARIZONA

CITY           SKY/WX    TMP DP  RH WIND       PRES   REMARKS
YUMA           MOCLDY    93  62  35 SE3       29.70S
$$

CAZ031-033-041-043-047-048-061-040800-
SOUTHERN CALIFORNIA

CITY           SKY/WX    TMP DP  RH WIND       PRES   REMARKS
DOWNTOWN L.A.  CLOUDY    64  59  83 CALM      29.89S
L.A. AIRPORT   CLOUDY    62  59  90 W9        29.90S
SAN DIEGO      CLOUDY    68  61  78 W5        29.91F
BURBANK        CLEAR     66  59  78 SE6       29.89S
ONTARIO        PTCLDY    69  55  60 W5        29.90S
RIVERSIDE      CLEAR     71  54  54 CALM      29.90S
PALM SPRINGS   MOCLDY    95  53  24 NW9G20    29.72S
EL CENTRO NAS  PTCLDY    92  53  26 W9        29.70S
IMPERIAL       MOCLDY    90  56  31 W10       29.67S
BLYTHE         CLOUDY    93  60  33 NE8       29.72R
$$

NVZ020-UTZ003-040800-
SOUTHERN NEVADA-UTAH

CITY           SKY/WX    TMP DP  RH WIND       PRES   REMARKS
LAS VEGAS      NOT AVBL
SALT LAKE CITY MOCLDY    83  47  28 SE7       29.91S
$$

NMZ009-TXZ055-040800-
NEW MEXICO-WEST TEXAS

CITY           SKY/WX    TMP DP  RH WIND       PRES   REMARKS
ALBUQUERQUE    CLOUDY    75  53  46 CALM      30.14S
EL PASO        MOCLDY    80  59  48 E5        30.02S
$$


........................KEY........................
SKY/WX - SKY CONDITION/WEATHER
TMP    - TEMPERATURE IN FAHRENHEIT
DP     - DEW POINT IN FAHRENHEIT
RH     - RELATIVE HUMIDITY IN PERCENT
WIND   - DIRECTION AND SPEED IN MILES PER HOUR (MPH)
VRB    - VARIABLE WIND DIRECTION
PRES   - MEAN SEA LEVEL PRESSURE IN INCHES OF MERCURY
         F - FALLING PRESSURE   R - RISING PRESSURE
         S - STEADY PRESSURE
VSB    - VISIBILITY IN MILES
HX     - HEAT INDEX IN FAHRENHEIT
WCI    - WIND CHILL INDEX IN FAHRENHEIT
TC     - TEMPERATURE IN CELSIUS WHICH IS ALSO KNOWN AS
         TEMPERATURE IN CENTIGRADE
AFB    - AIR FORCE BASE
         LUKE AFB IS LUKE AIR FORCE BASE
         DAVIS-MONTHAN IS DAVIS-MONTHAN AIR FORCE BASE
NAS    - NAVAL AIR STATION
         EL CENTRO NAS IS EL CENTRO NAVAL AIR STATION
N/A    - NOT AVAILABLE




USA.gov is the U.S. government's official web portal to all federal, state and local government web resources and services.